Simultaneous Nadir Overpasses (SNOs) Predictions

Prediction of SNOs between METOP-B and NOAA-19 Satellite Orbit:

Table of predicted SNOs for the next 14.0 days since TLE Epoch: 2/6/2021
Index Date (METOP-B) Time (METOP-B) Lat,Lon (METOP-B) SZA (METOP-B ) Date (NOAA-19) Time (NOAA-19) Lat,Lon (NOAA-19) SZA (NOAA-19 ) Distance(km) Time Diff (sec)
1 02/09/2021 03:22:22 80.40, 156.12 95.72 02/09/2021 03:21:11 80.39, 155.96 95.68 3.20 71
2 02/09/2021 04:13:04 -80.39, -36.69 84.31 02/09/2021 04:12:07 -80.38, -36.72 84.33 0.77 57
3 02/09/2021 05:03:44 80.39, 130.64 95.68 02/09/2021 05:03:11 80.38, 130.61 95.66 1.13 33
4 02/09/2021 05:54:26 -80.38, -62.17 84.35 02/09/2021 05:54:07 -80.38, -62.07 84.35 1.78 19
5 02/09/2021 06:45:06 80.38, 105.16 95.64 02/09/2021 06:45:11 80.37, 105.25 95.64 1.85 5
6 02/09/2021 07:35:48 -80.37, -87.65 84.40 02/09/2021 07:36:08 -80.39, -87.76 84.38 3.05 20
7 02/09/2021 08:26:28 80.37, 79.68 95.60 02/09/2021 08:27:12 80.38, 79.56 95.62 2.86 44



Historial Predications of SNOs between METOP-B and NOAA-19
